User: anonymous   Login
Location: Casone le Fosse
(44.6547°N, 12.1103°E)
Time: 16:25:15
(UTC+00:00)
Language:

Cosmos 1980 Rocket - Orbit

View from above orbital plane
View from above orbital plane
View from above satellite
View from above satellite

Ground track
Ground track

The orbit data is extracted from the following two-line orbital elements,

1 19650U 88102B   21019.54104978 -.00000174  00000-0 -64308-4 0  9990
2 19650  71.0007 135.5222 0015205 336.3886  23.6537 14.15800458661744
Epoch (UTC): 19 January 2021 12:59:06
Eccentricity: 0.0015205
inclination: 71.0007°
perigee height: 828 km
apogee height: 850 km
right ascension of ascending node: 135.5222°
argument of perigee: 336.3886°
revolutions per day: 14.15800458
mean anomaly at epoch: 23.6537°
orbit number at epoch: 66174

The dashed part of the orbit path shows where the satellite is in the earth's shadow,  

DLR